Time,TemperatureF,DewpointF,PressureIn,WindDirection,WindDirectionDegrees,WindSpeedMPH,WindSpeedGustMPH,Humidity,HourlyPrecipIn,Conditions,Clouds,dailyrainin,SoftwareType,DateUTC
2013-08-23 00:22:00,63.0,52.0,-100.00,ENE,70,1.0,6.0,66,-99.99,,,-99.99,,2013-08-23 05:22:00,
2013-08-23 00:34:00,63.0,52.0,-100.00,ENE,70,1.0,6.0,66,-99.99,,,-99.99,,2013-08-23 05:34:00,
2013-08-23 00:42:00,63.0,52.0,-100.00,ENE,70,1.0,6.0,66,-99.99,,,-99.99,,2013-08-23 05:42:00,
2013-08-23 00:52:00,63.0,52.0,-100.00,ENE,70,1.0,6.0,66,-99.99,,,-99.99,,2013-08-23 05:52:00,
2013-08-23 01:22:00,61.0,51.0,-100.00,East,90,0.0,0.0,69,-99.99,,,-99.99,,2013-08-23 06:22:00,
2013-08-23 01:32:00,61.0,51.0,-100.00,East,90,0.0,0.0,69,-99.99,,,-99.99,,2013-08-23 06:32:00,
2013-08-23 01:42:00,61.0,51.0,-100.00,East,90,0.0,0.0,69,-99.99,,,-99.99,,2013-08-23 06:42:00,
2013-08-23 01:52:00,61.0,51.0,-100.00,East,90,0.0,0.0,69,-99.99,,,-99.99,,2013-08-23 06:52:00,
2013-08-23 03:22:00,58.0,50.0,-100.00,WNW,295,0.0,0.0,77,-99.99,,,-99.99,,2013-08-23 08:22:00,
2013-08-23 03:32:00,58.0,50.0,-100.00,WNW,295,0.0,0.0,77,-99.99,,,-99.99,,2013-08-23 08:32:00,
2013-08-23 03:42:00,58.0,50.0,-100.00,WNW,295,0.0,0.0,77,-99.99,,,-99.99,,2013-08-23 08:42:00,
2013-08-23 03:52:00,58.0,50.0,-100.00,WNW,295,0.0,0.0,77,-99.99,,,-99.99,,2013-08-23 08:52:00,
2013-08-23 04:21:00,58.0,52.0,-100.00,East,80,0.0,1.0,80,-99.99,,,-99.99,,2013-08-23 09:21:00,
2013-08-23 04:33:00,58.0,52.0,-100.00,East,80,0.0,1.0,80,-99.99,,,-99.99,,2013-08-23 09:33:00,
2013-08-23 04:43:00,58.0,52.0,-100.00,East,80,0.0,1.0,80,-99.99,,,-99.99,,2013-08-23 09:43:00,
2013-08-23 04:53:00,58.0,52.0,-100.00,East,80,0.0,1.0,80,-99.99,,,-99.99,,2013-08-23 09:53:00,
2013-08-23 05:23:00,56.0,53.0,-100.00,NE,35,0.0,0.0,89,-99.99,,,-99.99,,2013-08-23 10:23:00,
2013-08-23 05:33:00,56.0,53.0,-100.00,NE,35,0.0,0.0,89,-99.99,,,-99.99,,2013-08-23 10:33:00,
2013-08-23 05:42:00,56.0,53.0,-100.00,NE,35,0.0,0.0,89,-99.99,,,-99.99,,2013-08-23 10:42:00,
2013-08-23 05:52:00,56.0,53.0,-100.00,NE,35,0.0,0.0,89,-99.99,,,-99.99,,2013-08-23 10:52:00,
2013-08-23 06:22:00,54.0,53.0,-100.00,NE,40,0.0,0.0,94,-99.99,,,-99.99,,2013-08-23 11:22:00,
2013-08-23 06:33:00,54.0,53.0,-100.00,NE,40,0.0,0.0,94,-99.99,,,-99.99,,2013-08-23 11:33:00,
2013-08-23 06:42:00,54.0,53.0,-100.00,NE,40,0.0,0.0,94,-99.99,,,-99.99,,2013-08-23 11:42:00,
2013-08-23 06:52:00,54.0,53.0,-100.00,NE,40,0.0,0.0,94,-99.99,,,-99.99,,2013-08-23 11:52:00,
2013-08-23 07:22:00,54.0,53.0,-100.00,ENE,65,0.0,0.0,96,-99.99,,,-99.99,,2013-08-23 12:22:00,
2013-08-23 07:32:00,54.0,53.0,-100.00,ENE,65,0.0,0.0,96,-99.99,,,-99.99,,2013-08-23 12:32:00,
2013-08-23 07:42:00,54.0,53.0,-100.00,ENE,65,0.0,0.0,96,-99.99,,,-99.99,,2013-08-23 12:42:00,
2013-08-23 07:52:00,54.0,53.0,-100.00,ENE,65,0.0,0.0,96,-99.99,,,-99.99,,2013-08-23 12:52:00,
2013-08-23 08:22:00,59.0,57.0,-100.00,South,175,1.0,3.0,94,-99.99,,,-99.99,,2013-08-23 13:22:00,
2013-08-23 08:32:00,59.0,57.0,-100.00,South,175,1.0,3.0,94,-99.99,,,-99.99,,2013-08-23 13:32:00,
2013-08-23 08:42:00,59.0,57.0,-100.00,South,175,1.0,3.0,94,-99.99,,,-99.99,,2013-08-23 13:42:00,
2013-08-23 08:52:00,59.0,57.0,-100.00,South,175,1.0,3.0,94,-99.99,,,-99.99,,2013-08-23 13:52:00,
2013-08-23 09:22:00,65.0,58.0,-100.00,South,175,2.0,4.0,79,-99.99,,,-99.99,,2013-08-23 14:22:00,
2013-08-23 09:32:00,65.0,58.0,-100.00,South,175,2.0,4.0,79,-99.99,,,-99.99,,2013-08-23 14:32:00,
2013-08-23 09:42:00,65.0,58.0,-100.00,South,175,2.0,4.0,79,-99.99,,,-99.99,,2013-08-23 14:42:00,
2013-08-23 09:52:00,65.0,58.0,-100.00,South,175,2.0,4.0,79,-99.99,,,-99.99,,2013-08-23 14:52:00,
2013-08-23 09:53:00,72.0,59.0,-100.00,SSE,155,2.0,4.0,65,-99.99,,,-99.99,,2013-08-23 14:53:00,
2013-08-23 10:22:00,72.0,59.0,-100.00,SSE,155,2.0,4.0,65,-99.99,,,-99.99,,2013-08-23 15:22:00,
2013-08-23 10:33:00,72.0,59.0,-100.00,SSE,155,2.0,4.0,65,-99.99,,,-99.99,,2013-08-23 15:33:00,
2013-08-23 10:44:00,72.0,59.0,-100.00,SSE,155,2.0,4.0,65,-99.99,,,-99.99,,2013-08-23 15:44:00,
2013-08-23 10:53:00,77.0,59.0,-100.00,SSE,155,3.0,7.0,54,-99.99,,,-99.99,,2013-08-23 15:53:00,
2013-08-23 11:24:00,77.0,59.0,-100.00,SSE,155,3.0,7.0,54,-99.99,,,-99.99,,2013-08-23 16:24:00,
2013-08-23 11:34:00,77.0,59.0,-100.00,SSE,155,3.0,7.0,54,-99.99,,,-99.99,,2013-08-23 16:34:00,
2013-08-23 11:42:00,77.0,59.0,-100.00,SSE,155,3.0,7.0,54,-99.99,,,-99.99,,2013-08-23 16:42:00,
2013-08-23 12:24:00,81.0,57.0,-100.00,SW,230,4.0,9.0,44,-99.99,,,-99.99,,2013-08-23 17:24:00,
2013-08-23 12:34:00,81.0,57.0,-100.00,SW,230,4.0,9.0,44,-99.99,,,-99.99,,2013-08-23 17:34:00,
2013-08-23 12:43:00,81.0,57.0,-100.00,SW,230,4.0,9.0,44,-99.99,,,-99.99,,2013-08-23 17:43:00,
2013-08-23 12:53:00,81.0,57.0,-100.00,SW,230,4.0,9.0,44,-99.99,,,-99.99,,2013-08-23 17:53:00,
2013-08-23 13:22:00,84.0,59.0,-100.00,WSW,240,6.0,9.0,42,-99.99,,,-99.99,,2013-08-23 18:22:00,
2013-08-23 13:32:00,84.0,59.0,-100.00,WSW,240,6.0,9.0,42,-99.99,,,-99.99,,2013-08-23 18:32:00,
2013-08-23 13:42:00,84.0,59.0,-100.00,WSW,240,6.0,9.0,42,-99.99,,,-99.99,,2013-08-23 18:42:00,
2013-08-23 13:52:00,84.0,59.0,-100.00,WSW,240,6.0,9.0,42,-99.99,,,-99.99,,2013-08-23 18:52:00,
2013-08-23 15:22:00,86.0,60.0,-100.00,SE,135,6.0,14.0,41,-99.99,,,-99.99,,2013-08-23 20:22:00,
2013-08-23 15:32:00,86.0,60.0,-100.00,SE,135,6.0,14.0,41,-99.99,,,-99.99,,2013-08-23 20:32:00,
2013-08-23 15:42:00,86.0,60.0,-100.00,SE,135,6.0,14.0,41,-99.99,,,-99.99,,2013-08-23 20:42:00,
2013-08-23 15:52:00,86.0,60.0,-100.00,SE,135,6.0,14.0,41,-99.99,,,-99.99,,2013-08-23 20:52:00,
2013-08-23 15:54:00,85.0,60.0,-100.00,South,185,7.0,14.0,42,-99.99,,,-99.99,,2013-08-23 20:54:00,
2013-08-23 16:22:00,85.0,60.0,-100.00,South,185,7.0,14.0,42,-99.99,,,-99.99,,2013-08-23 21:22:00,
2013-08-23 16:34:00,85.0,60.0,-100.00,South,185,7.0,14.0,42,-99.99,,,-99.99,,2013-08-23 21:34:00,
2013-08-23 16:44:00,85.0,60.0,-100.00,South,185,7.0,14.0,42,-99.99,,,-99.99,,2013-08-23 21:44:00,
2013-08-23 17:24:00,85.0,60.0,-100.00,SSE,160,7.0,12.0,43,-99.99,,,-99.99,,2013-08-23 22:24:00,
2013-08-23 17:33:00,85.0,60.0,-100.00,SSE,160,7.0,12.0,43,-99.99,,,-99.99,,2013-08-23 22:33:00,
2013-08-23 17:43:00,85.0,60.0,-100.00,SSE,160,7.0,12.0,43,-99.99,,,-99.99,,2013-08-23 22:43:00,
2013-08-23 17:53:00,85.0,60.0,-100.00,SSE,160,7.0,12.0,43,-99.99,,,-99.99,,2013-08-23 22:53:00,
2013-08-23 18:22:00,82.0,60.0,-100.00,South,170,7.0,14.0,47,-99.99,,,-99.99,,2013-08-23 23:22:00,
2013-08-23 18:33:00,82.0,60.0,-100.00,South,170,7.0,14.0,47,-99.99,,,-99.99,,2013-08-23 23:33:00,
2013-08-23 18:43:00,82.0,60.0,-100.00,South,170,7.0,14.0,47,-99.99,,,-99.99,,2013-08-23 23:43:00,
2013-08-23 18:54:00,82.0,60.0,-100.00,South,170,7.0,14.0,47,-99.99,,,-99.99,,2013-08-23 23:54:00,
2013-08-23 19:22:00,80.0,60.0,-100.00,South,180,6.0,11.0,52,-99.99,,,-99.99,,2013-08-24 00:22:00,
2013-08-23 19:32:00,80.0,60.0,-100.00,South,180,6.0,11.0,52,-99.99,,,-99.99,,2013-08-24 00:32:00,
2013-08-23 19:43:00,80.0,60.0,-100.00,South,180,6.0,11.0,52,-99.99,,,-99.99,,2013-08-24 00:43:00,
2013-08-23 19:53:00,80.0,60.0,-100.00,South,180,6.0,11.0,52,-99.99,,,-99.99,,2013-08-24 00:53:00,
2013-08-23 20:22:00,76.0,62.0,-100.00,South,175,3.0,6.0,62,-99.99,,,-99.99,,2013-08-24 01:22:00,
2013-08-23 20:32:00,76.0,62.0,-100.00,South,175,3.0,6.0,62,-99.99,,,-99.99,,2013-08-24 01:32:00,
2013-08-23 20:42:00,76.0,62.0,-100.00,South,175,3.0,6.0,62,-99.99,,,-99.99,,2013-08-24 01:42:00,
2013-08-23 20:53:00,76.0,62.0,-100.00,South,175,3.0,6.0,62,-99.99,,,-99.99,,2013-08-24 01:53:00,
2013-08-23 21:22:00,73.0,64.0,-100.00,South,185,1.0,3.0,74,-99.99,,,-99.99,,2013-08-24 02:22:00,
2013-08-23 21:32:00,73.0,64.0,-100.00,South,185,1.0,3.0,74,-99.99,,,-99.99,,2013-08-24 02:32:00,
2013-08-23 21:42:00,73.0,64.0,-100.00,South,185,1.0,3.0,74,-99.99,,,-99.99,,2013-08-24 02:42:00,
2013-08-23 21:52:00,73.0,64.0,-100.00,South,185,1.0,3.0,74,-99.99,,,-99.99,,2013-08-24 02:52:00,
2013-08-23 21:54:00,71.0,65.0,-100.00,SE,140,2.0,4.0,82,-99.99,,,-99.99,,2013-08-24 02:54:00,
2013-08-23 22:22:00,71.0,65.0,-100.00,SE,140,2.0,4.0,82,-99.99,,,-99.99,,2013-08-24 03:22:00,
2013-08-23 22:34:00,71.0,65.0,-100.00,SE,140,2.0,4.0,82,-99.99,,,-99.99,,2013-08-24 03:34:00,
2013-08-23 22:44:00,71.0,65.0,-100.00,SE,140,2.0,4.0,82,-99.99,,,-99.99,,2013-08-24 03:44:00,
2013-08-23 22:53:00,68.0,64.0,-100.00,SE,125,1.0,2.0,87,-99.99,,,-99.99,,2013-08-24 03:53:00,
2013-08-23 23:24:00,68.0,64.0,-100.00,SE,125,1.0,2.0,87,-99.99,,,-99.99,,2013-08-24 04:24:00,
2013-08-23 23:34:00,68.0,64.0,-100.00,SE,125,1.0,2.0,87,-99.99,,,-99.99,,2013-08-24 04:34:00,
2013-08-23 23:44:00,68.0,64.0,-100.00,SE,125,1.0,2.0,87,-99.99,,,-99.99,,2013-08-24 04:44:00,
2013-08-23 23:53:00,66.0,63.0,-100.00,ESE,115,1.0,2.0,92,-99.99,,,-99.99,,2013-08-24 04:53:00,